sat.trackr.live / text

‹ back to catalog

STARLINK-34229

NORAD 64250 · 2025-119T

PAYLOAD ACTIVE UNKNOWN

§ Identity

Operator
Country
US
Launch date
2025-06-03
Launch site
AFETR
Launch vehicle
Mass (kg)
RCS (m²)

Purposes: comms

External: N2YO · Heavens-Above · Gunter

§ Orbital elements

Epoch: 2026-09-20T01:37:39.303264Z

Period
94.27 min
Inclination
43.0032°
Eccentricity
0.0001340
Mean motion
15.27589163 rev/d
Perigee alt
482.1 km
Apogee alt
483.9 km
Semi-major
6,861.2 km
B*
4.9571e-4
RAAN
289.5927°
Arg perigee
265.9007°
Mean anomaly
94.1691°
Rev number
7,389

§ Raw data

STARLINK-342291 64250U 25119T   26263.06781601  .00013407  00000+0  49571-3 0  99962 64250  43.0032 289.5927 0001340 265.9007  94.1691 15.27589163 73894

JSON: /api/v1/satellites/64250 · /tle

For live sub-satellite position, see the globe view (requires WebGL).

§ Visibility from observer

Set your observer location to see the next 7 days of passes ≥ 10°. The values pass through the URL so the page stays shareable.

No JS? Fill the form by hand. The geolocation button needs JavaScript.